Date,TemperatureHighF,TemperatureAvgF,TemperatureLowF,DewpointHighF,DewpointAvgF,DewpointLowF,HumidityHigh,HumidityAvg,HumidityLow,PressureMaxIn,PressureMinIn,WindSpeedMaxMPH,WindSpeedAvgMPH,GustSpeedMaxMPH,PrecipitationSumIn
2013-3-1,51.3,41.7,33.8,42.2,36.9,30.8,96,83,67,30.43,30.38,6,2,9,0.01
2013-3-2,53.1,43.4,31.8,38.9,35.5,31.1,98,75,49,30.41,30.00,8,2,11,0.00
2013-3-3,44.4,36.4,24.8,39.4,25.0,13.1,97,67,30,30.28,29.88,19,7,41,0.12
2013-3-4,39.0,27.8,16.7,21.9,15.8,8.9,89,64,32,30.43,30.27,9,4,12,0.00
2013-3-5,38.1,28.6,15.8,27.1,16.6,11.6,83,63,37,30.30,30.06,7,4,9,0.00
2013-3-6,39.2,32.4,27.3,32.4,27.9,23.4,96,83,71,30.06,29.84,8,3,11,0.06
2013-3-7,54.7,38.7,28.8,34.2,29.1,22.2,98,73,32,30.18,29.93,9,2,14,0.00
2013-3-8,50.7,36.5,20.7,28.8,23.1,17.7,92,61,38,30.17,30.07,8,3,12,0.00
2013-3-9,51.8,39.8,25.3,26.6,23.4,20.7,85,55,31,30.46,30.16,8,4,12,0.00
2013-3-10,50.0,37.4,24.6,30.7,25.0,20.0,90,64,33,30.48,30.26,12,4,17,0.00
2013-3-11,54.9,41.1,30.6,28.1,17.9,-1.2,81,45,12,30.33,30.24,13,4,18,0.00
2013-3-12,36.9,33.2,28.9,35.2,28.0,18.8,99,82,59,30.32,30.18,3,1,5,0.20
2013-3-13,62.4,45.1,34.7,45.7,37.9,34.5,99,79,41,30.29,30.21,5,2,8,0.02
2013-3-14,56.1,43.9,34.3,39.4,36.3,32.4,96,76,49,30.28,30.09,4,2,7,0.00
2013-3-15,62.1,51.6,42.4,36.6,31.1,24.1,77,47,27,30.21,30.07,14,7,22,0.00
2013-3-16,50.4,40.7,31.1,38.4,34.4,29.5,95,79,58,30.17,29.79,13,4,21,0.07
2013-3-17,48.4,36.3,29.8,35.6,23.5,15.9,95,62,29,30.06,29.72,14,7,25,0.06
2013-3-18,46.6,34.4,26.8,26.3,20.7,17.4,91,59,34,30.16,30.02,13,4,17,0.00
2013-3-19,47.3,34.4,21.9,24.6,16.0,-0.3,83,52,16,30.38,30.10,13,4,16,0.00
2013-3-20,52.3,37.8,29.7,40.5,29.7,17.1,92,73,57,30.10,29.67,12,4,21,0.12
2013-3-21,45.1,36.7,31.8,32.7,19.6,11.2,89,52,26,30.08,29.80,15,7,24,0.01
2013-3-22,44.2,31.3,24.4,26.6,21.0,12.9,93,68,29,30.31,30.07,10,3,15,0.00
2013-3-23,42.4,28.6,17.8,24.6,18.8,13.8,92,69,36,30.41,30.31,6,2,8,0.05
2013-3-24,43.2,29.0,19.6,24.2,18.2,15.4,86,66,37,30.46,30.32,10,4,14,0.00
2013-3-25,48.6,32.2,16.9,21.8,17.5,13.4,87,59,26,30.33,30.14,9,4,12,0.00
2013-3-26,55.8,39.2,23.4,27.3,22.3,19.3,85,55,26,30.16,30.07,9,4,12,0.00
2013-3-27,56.1,42.2,27.1,35.8,28.0,23.1,86,60,31,30.15,30.10,9,3,11,0.00
2013-3-28,57.7,44.8,35.2,40.6,37.1,33.4,96,76,47,30.21,30.14,10,3,15,0.00
2013-3-29,58.5,44.4,37.0,45.9,38.6,35.6,99,82,50,30.32,30.21,11,3,12,0.18
2013-3-30,64.4,47.0,30.2,40.3,32.4,23.8,99,63,27,30.39,30.23,12,4,17,0.01
2013-3-31,70.3,49.8,31.5,34.2,29.1,22.0,87,52,17,30.26,30.12,6,3,10,0.00